Preview of NWS' New Version of Forecast
This preview is not operational and should not be used for support decisions.

Regional Weather Roundup (RWR)

Issued by National Weather Service (NWS)

                            
000
ASCA42 TJSJ 200910
RWRPR 
PUERTO RICO/U.S. VIRGIN ISLANDS HOURLY WEATHER ROUNDUP
NATIONAL WEATHER SERVICE SAN JUAN PR
500 AM AST WED MAR 20 2019

PRZ001>002-007>008-010-201000-
PUERTO RICO
  
CITY           SKY/WX    TMP DP  RH WIND       PRES   REMARKS
SAN JUAN LMM   MOCLDY    73  70  88 CALM      29.96S                  
$$

VIZ001>002-201000-
U.S. VIRGIN ISLANDS
  
CITY           SKY/WX    TMP DP  RH WIND       PRES   REMARKS
CHARLOTTE AMA  PTCLDY    75  70  83 E8        29.95S                  
CHRISTIANSTED  PTCLDY    77  70  78 E15       29.95F                  
$$

HOURLY WEATHER ROUNDUP FOR THE NEWS MEDIA
  
CITY           SKY/WX    TMP DP  RH WIND       PRES   REMARKS
ORLANDO        CLOUDY    58  57  97 N10       30.05S                  
NEW YORK       FAIR      32  30  92 S3        30.41S                  
NEWARK         FAIR      35  28  75 CALM      30.39F                  
CHICAGO        CLOUDY    42  30  62 SW9       30.15F                  
HARTFORD       FAIR      22  21  96 CALM      30.40S                  
BOSTON         FAIR      35  16  45 W5        30.40S WCI  31          
DALLAS         PTCLDY    57  40  52 CALM      30.19S                  
PHILADELPHIA   FAIR      35  29  78 W5        30.40F WCI  31          
LOS ANGELES    MOCLDY    59  52  77 SE12      30.00R                  
WASHINGTON DC  CLOUDY    28  21  75 CALM      30.37F